470  
ASUS46 KPDT 210025  
RWRPDT  
PENDLETON REGIONAL WEATHER ROUNDUP  
NATIONAL WEATHER SERVICE PENDLETON OREGON  
400 PM PST THU FEB 20 2020  
 
NOTE: FAIR INDICATES FEW OR NO CLOUDS BELOW 12,000 FEET WITH NO  
SIGNIFICANT WEATHER AND/OR S TO VISIBILITY
.  
 
# INDICATES UNOFFICIAL STATION AND DATA  
 
WAZ520-210110-  
EAST SLOPES OF WASHINGTON CASCADES  
 
CITY SKY/WX TMP DP RH WIND PRES REMARKS
 
#BULLFROG N/A 41 22 46 SE1 N/A  
#EASTON DOT N/A 37 23 56 CALM N/A  
#ELK HTS DOT N/A 41 41 100 E1 N/A  
#GLENWOOD N/A 46 22 38 CALM 30.34  
#NELSON 3SW N/A 27 24 88 CALM 30.61  
#NILE N/A 41 22 46 SE1 29.59  
#TROUT LAKE 1NE N/A 45 24 43 CALM 30.33  
#TROUT LAKE 1E N/A 45 25 45 CALM 30.28  

 
 
WAZ521-210110-  
SIMCOE HIGHLANDS  
 
CITY SKY/WX TMP DP RH WIND PRES REMARKS
 
#SATUS PASS DOT N/A 39 14 35 S1 N/A  
#CENTERVILLE 1SWN/A 41 24 50 SE9 30.31  
#LYLE 6NE N/A 46 28 49 W3 30.34  
#PITT 4SE N/A 40 23 50 CALM 30.37  

 
 
WAZ026-210110-  
KITTITAS VALLEY  
 
CITY SKY/WX TMP DP RH WIND PRES REMARKS
 
ELLENSBURG AP SUNNY 47 20 34 E3 30.28  
6HR MIN TEMP: 32; 6HR MAX TEMP: 48;  
 
#ELLENSBURG CWU N/A 46 24 42 CALM 30.30  
#ELLENSBURG 3NE N/A 43 25 49 CALM 28.35  
#ELLENSBURG 1E N/A 44 24 45 CALM 30.38  
#KITTITAS 3S N/A 45 25 45 NE2 30.36  
#MANASTASH RDG N/A 39 21 48 CALM N/A  
#ROCKY CYN DOT N/A 42 23 46 E5 N/A  
#RYEGRASS DOT N/A 38 18 44 E8 N/A  
#THORP 6N N/A 43 21 41 CALM 30.40  

 
 
WAZ027-210110-  
YAKIMA VALLEY  
 
CITY SKY/WX TMP DP RH WIND PRES REMARKS
 
SUNNYSIDE AP PTCLDY 47 23 38 SE5 30.32S  
YAKIMA AIRPORT PTCLDY 46 18 32 S7 30.31  
6HR MIN TEMP: 36; 6HR MAX TEMP: 48;  
 
YAKIMA-VAGABOND SUNNY 44 17 33 SW8 30.28  
6HR MIN TEMP: 35; 6HR MAX TEMP: 47;  
 
#MABTON N/A 46 25 43 E1 30.32  
#NACHES 2SW N/A 44 23 43 CALM 30.29  
#OUTLOOK DOT N/A 47 20 34 CALM 30.29  
#PARKER DOT N/A 47 17 30 N3 30.31  
#TERRACE HTS N/A 48 24 39 SE1 30.34  
#TOPPENISH N/A 47 23 38 CALM 30.28  
#I82 S UMTANUM RN/A 43 17 35 SW6 N/A  
#ZILLAH DOT N/A 47 18 31 SE5 N/A  

 
 
WAZ028-210110-  
LOWER COLUMBIA BASIN...WASHINGTON  
 
CITY SKY/WX TMP DP RH WIND PRES REMARKS
 
HANFORD MOCLDY 46 20 35 W1 30.31  
6HR MIN TEMP: 37; 6HR MAX TEMP: 47;  
 
PASCO MOCLDY 49 23 36 NW3 30.34  
6HR MIN TEMP: 34; 6HR MAX TEMP: 51;  
 
PROSSER AWOS N/A 45 19 35 E6 30.35S  
RICHLAND AWOS MOCLDY 49 23 36 N3 30.34S  
#BASIN CITY 5SW N/A 48 22 35 CALM 30.33  
#BENTON CITY N/A 45 24 43 E1 30.26  
#CONNELL 5N N/A 49 24 37 E2 30.35  
#CONNELL 5NW N/A 49 27 42 CALM 30.31  
#ELTOPIA 6NW N/A 47 26 44 CALM 29.28  
#KENNEWICK 3S N/A 46 25 43 CALM 30.36  
#PROSSER DOT N/A 47 20 34 E2 30.33  
#SAGEMOOR 2W N/A 45 25 45 CALM 30.21  
#TOUCHET 2S N/A 46 31 56 CALM 30.34  

 
 
WAZ029-210110-  
FOOTHILLS OF THE BLUES...WASHINGTON  
 
CITY SKY/WX TMP DP RH WIND PRES REMARKS
 
WALLA WALLA AP PTCLDY 44 31 60 SW7 30.31  
6HR MIN TEMP: 32; 6HR MAX TEMP: 47;  
 
#CLYDE 6NW N/A 47 24 40 NE1 30.34  
#DELANEY DOT N/A 49 16 26 NW1 30.33  
#LOWDEN 2SE N/A 46 30 53 CALM 30.30  
#PRESCOTT N/A 50 27 41 N2 30.34  
#WHITMAN MISSIONN/A 45 30 55 SW2 30.29  

 
 
WAZ030-210110-  
BLUE MOUNTAINS...WASHINGTON  
 
CITY SKY/WX TMP DP RH WIND PRES REMARKS
 

 
 
ORZ009-041-WAZ024-210110-  
COLUMBIA RIVER GORGE  
 
CITY SKY/WX TMP DP RH WIND PRES REMARKS
 
HOOD RIVER AP PTCLDY 48 23 37 NE5 30.30S  
THE DALLES AP PTCLDY 50 25 37 NE6 30.31  
6HR MIN TEMP: 34; 6HR MAX TEMP: 51;  
 
#CELILO DOT N/A 47 22 37 NE2 N/A  
#LYLE N/A 50 25 37 E15 30.32  
#MARYHILL N/A 47 23 38 N6 N/A  
#RUFUS DOT N/A 47 24 40 NE8 N/A  
 

 
 
ORZ510-210110-  
NORTH CENTRAL OREGON  
 
CITY SKY/WX TMP DP RH WIND PRES REMARKS
 
#ANTELOPE N/A 47 21 35 CALM 30.22  
#COW CYN RST AREN/A 43 20 39 N7 N/A  
#DUFUR N/A 46 25 43 N2 30.32  
#DUFUR 9E N/A 41 23 48 E9 30.39  
#GRASS VALLEY 1SN/A 42 23 46 CALM 30.30  
#KENT DOT N/A 43 15 32 NE7 N/A  
#MORO SCHOOL N/A 43 20 39 CALM 30.27  
#SHANIKO 5WSW N/A 42 22 45 N8 N/A  
#TYGH VALLEY 2NEN/A 47 26 44 SE1 30.32  
#WAPANITIA AIRPON/A 44 24 45 E1 30.36  
#WASCO DOT N/A 47 19 32 E8 N/A  
#WASCO 5NE N/A 43 22 43 E6 30.34  

 
 
ORZ511-210110-  
CENTRAL OREGON  
 
CITY SKY/WX TMP DP RH WIND PRES REMARKS
 
BEND AIRPORT PTCLDY 54 16 22 N8 30.19S HAZE  
MADRAS AIRPORT PTCLDY 45 21 38 N5 30.25S  
PRINEVILLE AP MOCLDY 50 18 28 SE12 30.20F  
REDMOND AIRPORT MOCLDY 53 18 25 NE5 30.20  
6HR MIN TEMP: 40; 6HR MAX TEMP: 53;  
 
#ASHWOOD SCHOOL N/A 47 21 35 CALM 30.17  
#BEND-KIM LN N/A 49 22 34 N2 30.27  
#CULVER N/A 42 21 43 N2 29.88  
#PRINEVILLE N/A 52 23 32 E5 30.37  
#WARM SPRINGS N/A 49 24 37 CALM 30.14  
 

 
 
 
ORZ509-210110-  
EAST SLOPES OF OREGON CASCADES  
 
CITY SKY/WX TMP DP RH WIND PRES REMARKS
 
SISTERS AWOS N/A 48 19 31 CALM 30.16  
SUNRIVER AWOS SUNNY 48 14 25 SW5 30.23S  
#BLUE BOX PASS N/A 40 N/A N/A S1 N/A  
#CAMP SHERMAN N/A 49 17 28 CALM 30.34  
#LAVA BUTTE DOT N/A 49 13 23 CALM N/A  
#SISTERS ODOT N/A 49 16 26 CALM N/A  
#TUMALO 3W N/A 49 21 33 N5 30.16  
#WANOGA BUTTE D N/A 42 11 28 SW2 N/A  
 

 
 
ORZ044-210110-  
LOWER COLUMBIA BASIN...OREGON  
 
CITY SKY/WX TMP DP RH WIND PRES REMARKS
 
HERMISTON MOCLDY 48 23 37 NE12 30.31 WCI 43  
6HR MIN TEMP: 36; 6HR MAX TEMP: 50;  
 
#BOARDMAN SCHOOLN/A 48 25 40 N2 30.30  
#UMATILLA N/A 50 26 39 NE1 30.26  

 
 
ORZ507-210110-  
NORTHERN FOOTHILLS OF THE BLUES  
 
CITY SKY/WX TMP DP RH WIND PRES REMARKS
 
PENDLETON AIRPT MOCLDY 52 20 28 S5 30.26  
6HR MIN TEMP: 41; 6HR MAX TEMP: 52;  
 
#ADAMS 3WNW N/A 44 31 60 NE8 30.34  
#ATHENA N/A 41 29 62 NE6 30.37  
#CAYUSE N/A 49 21 33 SE10 30.30  
#HELIX SCHOOL N/A 43 25 49 NE3 30.33  
#HELIX 3N N/A 41 22 46 NE10 30.28  
#HOLDMAN 6E N/A 42 26 53 N9 30.13  
#M-FREEWATER 5SEN/A 45 33 63 CALM 30.28  
#PDT AQUATIC CTRN/A 51 26 37 SW5 30.28  
#PDT SUNRIDGE N/A 50 29 44 W3 30.29  
#PENDLETON 6SE N/A 51 25 36 SE2 30.27  
#TUTUILLA N/A 47 22 37 NE1 30.33  
#UMAPINE 2E N/A 44 30 58 CALM 30.35  
#WESTON SCHOOL N/A 41 27 57 NE5 30.05  
 

 
 
ORZ508-210110-  
SOUTHERN FOOTHILLS OF THE BLUES  
 
CITY SKY/WX TMP DP RH WIND PRES REMARKS
 
#CONDON 5W N/A 37 20 50 N5 30.19  
#HEPPNER EOC N/A 46 26 45 N3 30.26  
#HEPPNER 4NE N/A 40 26 57 NE5 30.33  
#LEXINGTON 2SE N/A 46 24 42 N3 30.24  
#OLEX 4N N/A 44 22 41 NE3 30.29  
#RUGGS 2SW N/A 40 26 57 N5 30.35  
 

 
 
ORZ502-503-210110-  
BLUE MOUNTAINS  
 
CITY SKY/WX TMP DP RH WIND PRES REMARKS
 
MEACHAM PTCLDY 35 15 43 CALM 30.24  
6HR MIN TEMP: 29; 6HR MAX TEMP: 38;  
 
#BATTLE MTN DOT N/A 38 10 31 S8 N/A  
#LADD CYN SMT N/A 34 13 41 E18G28 N/A WCI 23  
#N POWDER DOT N/A 37 12 35 SE16 N/A WCI 28  
#TOLLGATE N/A 29 15 55 CALM 30.23  
#TROY SCHOOL N/A 46 21 37 CALM 30.24  
#WESTON 4E N/A 39 13 34 E8 30.32  

 
 
ORZ505-210110-  
JOHN DAY BASIN  
 
CITY SKY/WX TMP DP RH WIND PRES REMARKS
 
JOHN DAY SUNNY 41 18 39 E8 30.25S  
#DAYVILLE SCHOOLN/A 50 17 27 S2 30.17  
#MITCHELL 8NW N/A 47 16 28 S1 30.33  
#MONUMENT HS N/A 51 15 23 NW6 30.17  

 
 
ORZ506-210110-  
OCHOCO AND JOHN DAY HIGHLANDS  
 
CITY SKY/WX TMP DP RH WIND PRES REMARKS
 
#BUCK CREEK DOT N/A 39 15 37 SE16 N/A WCI 30  
#HORSE RIDGE DO N/A 49 12 22 S8 N/A  
#KEYES SMT DOT N/A 39 13 34 E2 N/A  
#PAULINA ODOT N/A 45 N/A N/A S6 N/A  
#PRAIRIE CITY N/A 42 14 32 NE3 30.22  
#SENECA 9NW N/A 36 16 44 CALM 30.50  

 
 
ORZ049-210110-  
GRANDE RONDE VALLEY  
 
CITY SKY/WX TMP DP RH WIND PRES REMARKS
 
LA GRANDE PTCLDY 39 12 32 S18G31 30.33 WCI 30  
#COVE SCHOOL N/A 42 19 39 S1 30.29  
#COVE 6NW N/A 40 16 37 S8G24 30.42  
#ELGIN 1E N/A 40 15 36 S1 N/A  
#ISLAND CITY 4N N/A 57 32 38 CALM 30.22  
#LADD CYN DOT N/A 38 15 38 S28G44 N/A WCI 26  
#UNION 1S N/A 40 16 37 E13 30.45 WCI 32  

 
 
ORZ050-210110-  
WALLOWA COUNTY  
 
CITY SKY/WX TMP DP RH WIND PRES REMARKS
 
#ENTERPRISE HS N/A 39 23 52 CALM 30.35  
#IMNAHA SCHOOL N/A 47 15 27 N7 30.41  
#IMNAHA 10S N/A 45 4 18 W9 30.25  
#JOSEPH 3N N/A 34 22 61 CALM 30.29  
#LOSTINE N/A 38 19 46 CALM 30.28  
#LOSTINE 3SE N/A 39 17 40 NE2 N/A  
#MT HOWARD 8000 N/A 31 -9 17 SW10G24 30.18  
#WALLOWA SCHOOL N/A 40 21 46 CALM 30.47  
 

 
 
CLICK HERE TO GO TO PREVIOUS BULLETINS.

The Nexlab OR Page
The Nexlab WA Page Main Text Page